Time,TemperatureF,DewpointF,PressureIn,WindDirection,WindDirectionDegrees,WindSpeedMPH,WindSpeedGustMPH,Humidity,HourlyPrecipIn,Conditions,Clouds,dailyrainin,SolarRadiationWatts/m^2,SoftwareType,DateUTC
2013-02-03 00:02:00,58.3,32.7,-100.00,SSE,163,0.0,1.0,38,0.00,,,0.00,0.0,meteohub,2013-02-03 05:02:00,
2013-02-03 00:07:00,57.9,31.1,-100.00,SSE,163,0.0,1.0,36,0.00,,,0.00,0.0,meteohub,2013-02-03 05:07:00,
2013-02-03 00:12:00,57.9,30.4,-100.00,SSE,163,0.0,0.0,35,0.00,,,0.00,0.0,meteohub,2013-02-03 05:12:00,
2013-02-03 00:17:00,57.7,29.5,-100.00,SSE,163,0.0,0.0,34,0.00,,,0.00,0.0,meteohub,2013-02-03 05:17:00,
2013-02-03 00:22:00,57.9,28.2,-100.00,SSE,163,0.0,0.0,32,0.00,,,0.00,0.0,meteohub,2013-02-03 05:22:00,
2013-02-03 00:27:00,57.7,28.0,-100.00,SSE,163,0.0,0.0,32,0.00,,,0.00,0.0,meteohub,2013-02-03 05:27:00,
2013-02-03 00:32:00,57.6,27.9,-100.00,SSE,163,0.0,0.0,32,0.00,,,0.00,0.0,meteohub,2013-02-03 05:32:00,
2013-02-03 00:37:00,57.4,27.0,-100.00,SSE,163,0.0,0.0,31,0.00,,,0.00,0.0,meteohub,2013-02-03 05:37:00,
2013-02-03 00:42:00,57.4,26.2,-100.00,SSE,163,0.0,0.0,30,0.00,,,0.00,0.0,meteohub,2013-02-03 05:42:00,
2013-02-03 00:47:00,57.0,25.9,-100.00,SSE,163,0.0,0.0,30,0.00,,,0.00,0.0,meteohub,2013-02-03 05:47:00,
2013-02-03 00:52:00,57.4,25.3,-100.00,SSE,163,0.0,0.0,29,0.00,,,0.00,0.0,meteohub,2013-02-03 05:52:00,
2013-02-03 01:02:00,57.4,23.7,-100.00,SSE,163,0.0,1.0,27,0.00,,,0.00,0.0,meteohub,2013-02-03 06:02:00,
2013-02-03 01:07:00,57.6,23.9,-100.00,SSE,163,0.0,1.0,27,0.00,,,0.00,0.0,meteohub,2013-02-03 06:07:00,
2013-02-03 01:12:00,57.6,23.9,-100.00,SSE,163,0.0,0.0,27,0.00,,,0.00,0.0,meteohub,2013-02-03 06:12:00,
2013-02-03 01:17:00,57.4,23.7,-100.00,SSE,163,0.0,0.0,27,0.00,,,0.00,0.0,meteohub,2013-02-03 06:17:00,
2013-02-03 01:22:00,57.6,23.0,-100.00,SSE,163,0.0,0.0,26,0.00,,,0.00,0.0,meteohub,2013-02-03 06:22:00,
2013-02-03 01:27:00,57.4,22.8,-100.00,SSE,163,0.0,0.0,26,0.00,,,0.00,0.0,meteohub,2013-02-03 06:27:00,
2013-02-03 01:32:00,57.4,22.8,-100.00,SSE,163,0.0,0.0,26,0.00,,,0.00,0.0,meteohub,2013-02-03 06:32:00,
2013-02-03 01:37:00,57.4,22.8,-100.00,SSE,163,0.0,0.0,26,0.00,,,0.00,0.0,meteohub,2013-02-03 06:37:00,
2013-02-03 01:42:00,57.6,21.9,-100.00,SSE,163,0.0,0.0,25,0.00,,,0.00,0.0,meteohub,2013-02-03 06:42:00,
2013-02-03 01:47:00,57.6,23.0,-100.00,SSE,163,0.0,0.0,26,0.00,,,0.00,0.0,meteohub,2013-02-03 06:47:00,
2013-02-03 01:57:00,57.4,21.9,-100.00,SSE,163,0.0,0.0,25,0.00,,,0.00,0.0,meteohub,2013-02-03 06:57:00,
2013-02-03 02:02:00,57.0,22.5,-100.00,SSE,163,0.0,0.0,26,0.00,,,0.00,0.0,meteohub,2013-02-03 07:02:00,
2013-02-03 02:07:00,56.8,23.2,-100.00,SSE,163,0.0,0.0,27,0.00,,,0.00,0.0,meteohub,2013-02-03 07:07:00,
2013-02-03 02:12:00,56.7,23.0,-100.00,SSE,163,0.0,0.0,27,0.00,,,0.00,0.0,meteohub,2013-02-03 07:12:00,
2013-02-03 02:17:00,56.5,22.8,-100.00,SSE,163,0.0,0.0,27,0.00,,,0.00,0.0,meteohub,2013-02-03 07:17:00,
2013-02-03 02:22:00,56.1,23.4,-100.00,SSE,163,0.0,0.0,28,0.00,,,0.00,0.0,meteohub,2013-02-03 07:22:00,
2013-02-03 02:27:00,56.1,22.6,-100.00,SSE,163,0.0,0.0,27,0.00,,,0.00,0.0,meteohub,2013-02-03 07:27:00,
2013-02-03 02:32:00,56.1,22.6,-100.00,SSE,163,0.0,0.0,27,0.00,,,0.00,0.0,meteohub,2013-02-03 07:32:00,
2013-02-03 02:37:00,56.5,21.9,-100.00,SSE,163,0.0,0.0,26,0.00,,,0.00,0.0,meteohub,2013-02-03 07:37:00,
2013-02-03 02:42:00,56.7,22.1,-100.00,SSE,163,0.0,0.0,26,0.00,,,0.00,0.0,meteohub,2013-02-03 07:42:00,
2013-02-03 02:47:00,56.8,21.4,-100.00,SSE,163,0.0,0.0,25,0.00,,,0.00,0.0,meteohub,2013-02-03 07:47:00,
2013-02-03 02:52:00,56.8,21.4,-100.00,SSE,163,0.0,0.0,25,0.00,,,0.00,0.0,meteohub,2013-02-03 07:52:00,
2013-02-03 02:57:00,56.7,22.1,-100.00,SSE,163,0.0,0.0,26,0.00,,,0.00,0.0,meteohub,2013-02-03 07:57:00,
2013-02-03 03:02:00,56.7,22.1,-100.00,SSE,163,0.0,0.0,26,0.00,,,0.00,0.0,meteohub,2013-02-03 08:02:00,
2013-02-03 03:07:00,56.7,22.1,-100.00,SSE,163,0.0,0.0,26,0.00,,,0.00,0.0,meteohub,2013-02-03 08:07:00,
2013-02-03 03:12:00,56.7,22.1,-100.00,SSE,163,0.0,0.0,26,0.00,,,0.00,0.0,meteohub,2013-02-03 08:12:00,
2013-02-03 03:17:00,56.8,21.4,-100.00,SSE,163,0.0,0.0,25,0.00,,,0.00,0.0,meteohub,2013-02-03 08:17:00,
2013-02-03 03:22:00,56.8,21.4,-100.00,SSE,163,0.0,0.0,25,0.00,,,0.00,0.0,meteohub,2013-02-03 08:22:00,
2013-02-03 03:32:00,56.8,22.3,-100.00,SSE,163,0.0,0.0,26,0.00,,,0.00,0.0,meteohub,2013-02-03 08:32:00,
2013-02-03 03:37:00,56.8,22.3,-100.00,SSE,163,0.0,0.0,26,0.00,,,0.00,0.0,meteohub,2013-02-03 08:37:00,
2013-02-03 03:42:00,57.0,22.5,-100.00,SSE,163,0.0,1.0,26,0.00,,,0.00,0.0,meteohub,2013-02-03 08:42:00,
2013-02-03 03:47:00,57.0,22.5,-100.00,SSE,163,0.0,1.0,26,0.00,,,0.00,0.0,meteohub,2013-02-03 08:47:00,
2013-02-03 03:52:00,56.8,23.2,-100.00,SSE,163,0.0,1.0,27,0.00,,,0.00,0.0,meteohub,2013-02-03 08:52:00,
2013-02-03 03:57:00,57.2,22.6,-100.00,SSE,163,0.0,0.0,26,0.00,,,0.00,0.0,meteohub,2013-02-03 08:57:00,
2013-02-03 04:02:00,57.9,22.3,-100.00,SSE,163,0.0,0.0,25,0.00,,,0.00,0.0,meteohub,2013-02-03 09:02:00,
2013-02-03 04:07:00,58.5,22.8,-100.00,SSE,163,0.0,0.0,25,0.00,,,0.00,0.0,meteohub,2013-02-03 09:07:00,
2013-02-03 04:17:00,58.6,22.8,-100.00,SSE,163,0.0,0.0,25,0.00,,,0.00,0.0,meteohub,2013-02-03 09:17:00,
2013-02-03 04:22:00,58.5,23.7,-100.00,SSE,163,0.0,0.0,26,0.00,,,0.00,0.0,meteohub,2013-02-03 09:22:00,
2013-02-03 04:27:00,57.9,23.2,-100.00,SSE,163,0.0,0.0,26,0.00,,,0.00,0.0,meteohub,2013-02-03 09:27:00,
2013-02-03 04:32:00,57.4,23.7,-100.00,SSE,163,0.0,0.0,27,0.00,,,0.00,0.0,meteohub,2013-02-03 09:32:00,
2013-02-03 04:37:00,57.4,22.8,-100.00,SSE,163,0.0,0.0,26,0.00,,,0.00,0.0,meteohub,2013-02-03 09:37:00,
2013-02-03 04:42:00,57.4,21.9,-100.00,SSE,163,0.0,0.0,25,0.00,,,0.00,0.0,meteohub,2013-02-03 09:42:00,
2013-02-03 04:47:00,57.4,21.9,-100.00,SSE,163,2.0,0.0,25,0.00,,,0.00,0.0,meteohub,2013-02-03 09:47:00,
2013-02-03 04:52:00,57.4,21.9,-100.00,South,176,4.0,4.0,25,0.00,,,0.00,0.0,meteohub,2013-02-03 09:52:00,
2013-02-03 04:57:00,57.2,21.7,-100.00,North,351,6.0,6.0,25,0.00,,,0.00,0.0,meteohub,2013-02-03 09:57:00,
2013-02-03 05:02:00,57.2,21.7,-100.00,NNW,348,2.0,7.0,25,0.00,,,0.00,0.0,meteohub,2013-02-03 10:02:00,
2013-02-03 05:07:00,57.2,22.6,-100.00,North,350,2.0,7.0,26,0.00,,,0.00,0.0,meteohub,2013-02-03 10:07:00,
2013-02-03 05:12:00,57.0,23.4,-100.00,North,351,3.0,7.0,27,0.00,,,0.00,0.0,meteohub,2013-02-03 10:12:00,
2013-02-03 05:17:00,57.0,23.4,-100.00,North,351,3.0,6.0,27,0.00,,,0.00,0.0,meteohub,2013-02-03 10:17:00,
2013-02-03 05:22:00,57.0,24.3,-100.00,NNW,337,5.0,6.0,28,0.00,,,0.00,0.0,meteohub,2013-02-03 10:22:00,
2013-02-03 05:27:00,57.0,25.0,-100.00,NNW,339,4.0,6.0,29,0.00,,,0.00,0.0,meteohub,2013-02-03 10:27:00,
2013-02-03 05:32:00,56.8,25.0,-100.00,NNW,342,2.0,6.0,29,0.00,,,0.00,0.0,meteohub,2013-02-03 10:32:00,
2013-02-03 05:37:00,56.8,25.7,-100.00,NNW,331,4.0,5.0,30,0.00,,,0.00,0.0,meteohub,2013-02-03 10:37:00,
2013-02-03 05:42:00,56.8,25.7,-100.00,NNW,336,2.0,6.0,30,0.00,,,0.00,0.0,meteohub,2013-02-03 10:42:00,
2013-02-03 05:47:00,56.8,25.7,-100.00,NNW,340,2.0,6.0,30,0.00,,,0.00,0.0,meteohub,2013-02-03 10:47:00,
2013-02-03 05:52:00,56.7,25.5,-100.00,NNW,342,3.0,6.0,30,0.00,,,0.00,0.0,meteohub,2013-02-03 10:52:00,
2013-02-03 05:57:00,56.7,25.5,-100.00,NNW,342,0.0,6.0,30,0.00,,,0.00,0.0,meteohub,2013-02-03 10:57:00,
2013-02-03 06:02:00,56.7,25.5,-100.00,NNW,342,3.0,6.0,30,0.00,,,0.00,0.0,meteohub,2013-02-03 11:02:00,
2013-02-03 06:07:00,56.7,25.5,-100.00,NNW,342,3.0,6.0,30,0.00,,,0.00,0.0,meteohub,2013-02-03 11:07:00,
2013-02-03 06:12:00,56.7,24.8,-100.00,NNW,342,4.0,4.0,29,0.00,,,0.00,0.0,meteohub,2013-02-03 11:12:00,
2013-02-03 06:17:00,56.7,25.5,-100.00,NNW,342,2.0,5.0,30,0.00,,,0.00,0.0,meteohub,2013-02-03 11:17:00,
2013-02-03 06:22:00,56.7,25.5,-100.00,NNW,342,1.0,5.0,30,0.00,,,0.00,0.0,meteohub,2013-02-03 11:22:00,
2013-02-03 06:27:00,56.5,25.3,-100.00,NNW,342,0.0,4.0,30,0.00,,,0.00,0.0,meteohub,2013-02-03 11:27:00,
2013-02-03 06:32:00,56.5,25.3,-100.00,NNW,342,2.0,5.0,30,0.00,,,0.00,0.0,meteohub,2013-02-03 11:32:00,
2013-02-03 06:37:00,56.3,26.1,-100.00,NNW,342,4.0,5.0,31,0.00,,,0.00,0.0,meteohub,2013-02-03 11:37:00,
2013-02-03 06:42:00,56.3,26.1,-100.00,NNW,342,4.0,5.0,31,0.00,,,0.00,0.0,meteohub,2013-02-03 11:42:00,
2013-02-03 06:47:00,56.3,26.1,-100.00,NNW,342,5.0,5.0,31,0.00,,,0.00,0.0,meteohub,2013-02-03 11:47:00,
2013-02-03 06:52:00,56.1,26.6,-100.00,North,349,2.0,5.0,32,0.00,,,0.00,0.0,meteohub,2013-02-03 11:52:00,
2013-02-03 06:57:00,56.1,26.6,-100.00,NNW,345,2.0,6.0,32,0.00,,,0.00,0.0,meteohub,2013-02-03 11:57:00,
2013-02-03 07:02:00,55.9,27.3,-100.00,NNW,347,3.0,6.0,33,0.00,,,0.00,0.0,meteohub,2013-02-03 12:02:00,
2013-02-03 07:07:00,55.8,27.9,-100.00,NNW,347,3.0,6.0,34,0.00,,,0.00,7.0,meteohub,2013-02-03 12:07:00,
2013-02-03 07:12:00,55.6,28.4,-100.00,North,355,6.0,6.0,35,0.00,,,0.00,11.0,meteohub,2013-02-03 12:12:00,
2013-02-03 07:17:00,55.6,29.7,-100.00,NNW,334,3.0,8.0,37,0.00,,,0.00,16.0,meteohub,2013-02-03 12:17:00,
2013-02-03 07:22:00,55.4,29.5,-100.00,North,350,4.0,8.0,37,0.00,,,0.00,21.0,meteohub,2013-02-03 12:22:00,
2013-02-03 07:27:00,55.2,30.7,-100.00,NNW,346,4.0,8.0,39,0.00,,,0.00,35.0,meteohub,2013-02-03 12:27:00,
2013-02-03 07:37:00,55.6,32.2,-100.00,NNW,343,6.0,9.0,41,0.00,,,0.00,65.0,meteohub,2013-02-03 12:37:00,
2013-02-03 07:42:00,55.8,33.6,-100.00,NNW,342,5.0,9.0,43,0.00,,,0.00,84.0,meteohub,2013-02-03 12:42:00,
2013-02-03 07:47:00,56.1,34.5,-100.00,NNW,343,6.0,7.0,44,0.00,,,0.00,104.0,meteohub,2013-02-03 12:47:00,
2013-02-03 07:52:00,56.5,35.4,-100.00,NNW,346,4.0,10.0,45,0.00,,,0.00,123.0,meteohub,2013-02-03 12:52:00,
2013-02-03 07:57:00,56.8,36.9,-100.00,NNW,337,6.0,10.0,47,0.00,,,0.00,142.0,meteohub,2013-02-03 12:57:00,
2013-02-03 08:02:00,57.4,37.4,-100.00,NNW,329,4.0,9.0,47,0.00,,,0.00,156.0,meteohub,2013-02-03 13:02:00,
2013-02-03 08:07:00,57.7,38.7,-100.00,NNW,345,5.0,9.0,49,0.00,,,0.00,193.0,meteohub,2013-02-03 13:07:00,
2013-02-03 08:12:00,58.3,39.2,-100.00,NNW,345,6.0,10.0,49,0.00,,,0.00,216.0,meteohub,2013-02-03 13:12:00,
2013-02-03 08:17:00,59.0,40.5,-100.00,NNW,338,5.0,10.0,50,0.00,,,0.00,239.0,meteohub,2013-02-03 13:17:00,
2013-02-03 08:22:00,59.2,41.0,-100.00,NNW,339,7.0,10.0,51,0.00,,,0.00,267.0,meteohub,2013-02-03 13:22:00,
2013-02-03 08:27:00,59.9,42.3,-100.00,NNW,344,4.0,9.0,52,0.00,,,0.00,251.0,meteohub,2013-02-03 13:27:00,
2013-02-03 08:32:00,60.4,43.2,-100.00,NNW,341,6.0,9.0,53,0.00,,,0.00,262.0,meteohub,2013-02-03 13:32:00,
2013-02-03 08:37:00,61.0,44.2,-100.00,NNW,346,6.0,9.0,54,0.00,,,0.00,264.0,meteohub,2013-02-03 13:37:00,
2013-02-03 08:42:00,61.3,45.0,-100.00,NNW,341,9.0,10.0,55,0.00,,,0.00,202.0,meteohub,2013-02-03 13:42:00,
2013-02-03 08:47:00,61.5,45.1,-100.00,NNW,334,4.0,11.0,55,0.00,,,0.00,250.0,meteohub,2013-02-03 13:47:00,
2013-02-03 08:52:00,62.1,46.2,-100.00,North,355,6.0,11.0,56,0.00,,,0.00,279.0,meteohub,2013-02-03 13:52:00,
2013-02-03 08:57:00,62.4,46.6,-100.00,NNW,334,8.0,11.0,56,0.00,,,0.00,352.0,meteohub,2013-02-03 13:57:00,
2013-02-03 09:02:00,63.0,46.9,-100.00,NNW,332,6.0,10.0,56,0.00,,,0.00,381.0,meteohub,2013-02-03 14:02:00,
2013-02-03 09:07:00,63.7,47.3,-100.00,North,355,2.0,10.0,55,0.00,,,0.00,408.0,meteohub,2013-02-03 14:07:00,
2013-02-03 09:12:00,64.2,47.7,-100.00,NNW,346,4.0,11.0,55,0.00,,,0.00,431.0,meteohub,2013-02-03 14:12:00,
2013-02-03 09:17:00,64.9,48.4,-100.00,NNW,339,9.0,11.0,55,0.00,,,0.00,450.0,meteohub,2013-02-03 14:17:00,
2013-02-03 09:22:00,65.5,48.4,-100.00,NNW,344,5.0,11.0,54,0.00,,,0.00,455.0,meteohub,2013-02-03 14:22:00,
2013-02-03 09:27:00,65.7,48.6,-100.00,North,355,9.0,13.0,54,0.00,,,0.00,446.0,meteohub,2013-02-03 14:27:00,
2013-02-03 09:32:00,65.8,48.7,-100.00,NNW,348,10.0,13.0,54,0.00,,,0.00,510.0,meteohub,2013-02-03 14:32:00,
2013-02-03 09:37:00,66.4,48.7,-100.00,NNW,346,6.0,13.0,53,0.00,,,0.00,492.0,meteohub,2013-02-03 14:37:00,
2013-02-03 09:42:00,66.7,48.6,-100.00,North,355,6.0,13.0,52,0.00,,,0.00,492.0,meteohub,2013-02-03 14:42:00,
2013-02-03 09:47:00,67.1,49.5,-100.00,NNW,346,10.0,14.0,53,0.00,,,0.00,529.0,meteohub,2013-02-03 14:47:00,
2013-02-03 09:52:00,67.3,49.6,-100.00,NNW,335,9.0,14.0,53,0.00,,,0.00,536.0,meteohub,2013-02-03 14:52:00,
2013-02-03 09:57:00,67.6,49.5,-100.00,NNW,344,6.0,14.0,52,0.00,,,0.00,520.0,meteohub,2013-02-03 14:57:00,
2013-02-03 10:02:00,68.2,49.8,-100.00,NNW,331,9.0,13.0,52,0.00,,,0.00,552.0,meteohub,2013-02-03 15:02:00,
2013-02-03 10:07:00,68.5,49.6,-100.00,NNW,340,5.0,12.0,51,0.00,,,0.00,624.0,meteohub,2013-02-03 15:07:00,
2013-02-03 10:12:00,69.4,50.0,-100.00,NNW,347,7.0,12.0,50,0.00,,,0.00,578.0,meteohub,2013-02-03 15:12:00,
2013-02-03 10:17:00,69.4,48.9,-100.00,NNW,337,6.0,15.0,48,0.00,,,0.00,543.0,meteohub,2013-02-03 15:17:00,
2013-02-03 10:22:00,69.4,49.5,-100.00,NNW,330,7.0,15.0,49,0.00,,,0.00,557.0,meteohub,2013-02-03 15:22:00,
2013-02-03 10:27:00,69.6,49.6,-100.00,North,5,6.0,15.0,49,0.00,,,0.00,647.0,meteohub,2013-02-03 15:27:00,
2013-02-03 10:32:00,70.2,50.7,-100.00,North,350,3.0,12.0,50,0.00,,,0.00,601.0,meteohub,2013-02-03 15:32:00,
2013-02-03 10:37:00,70.9,50.2,-100.00,NNW,344,4.0,11.0,48,0.00,,,0.00,666.0,meteohub,2013-02-03 15:37:00,
2013-02-03 10:42:00,71.2,50.0,-100.00,North,355,11.0,11.0,47,0.00,,,0.00,694.0,meteohub,2013-02-03 15:42:00,
2013-02-03 10:47:00,71.2,50.0,-100.00,North,355,11.0,12.0,47,0.00,,,0.00,693.0,meteohub,2013-02-03 15:47:00,
2013-02-03 10:52:00,71.6,50.9,-100.00,NNE,13,7.0,12.0,48,0.00,,,0.00,694.0,meteohub,2013-02-03 15:52:00,
2013-02-03 10:57:00,71.8,50.5,-100.00,NNW,342,4.0,12.0,47,0.00,,,0.00,710.0,meteohub,2013-02-03 15:57:00,
2013-02-03 11:02:00,72.1,50.7,-100.00,NNW,348,6.0,12.0,47,0.00,,,0.00,724.0,meteohub,2013-02-03 16:02:00,
2013-02-03 11:07:00,72.3,50.9,-100.00,North,351,4.0,11.0,47,0.00,,,0.00,735.0,meteohub,2013-02-03 16:07:00,
2013-02-03 11:12:00,73.0,50.4,-100.00,NNW,339,7.0,10.0,45,0.00,,,0.00,742.0,meteohub,2013-02-03 16:12:00,
2013-02-03 11:22:00,73.0,50.4,-100.00,North,355,2.0,10.0,45,0.00,,,0.00,751.0,meteohub,2013-02-03 16:22:00,
2013-02-03 11:27:00,72.9,50.4,-100.00,NNW,330,6.0,13.0,45,0.00,,,0.00,758.0,meteohub,2013-02-03 16:27:00,
2013-02-03 11:32:00,73.0,49.8,-100.00,North,0,10.0,13.0,44,0.00,,,0.00,744.0,meteohub,2013-02-03 16:32:00,
2013-02-03 11:42:00,73.8,49.8,-100.00,NW,316,4.0,12.0,43,0.00,,,0.00,782.0,meteohub,2013-02-03 16:42:00,
2013-02-03 11:47:00,73.6,49.6,-100.00,NNW,338,5.0,12.0,43,0.00,,,0.00,782.0,meteohub,2013-02-03 16:47:00,
2013-02-03 11:52:00,73.8,49.8,-100.00,NNW,340,6.0,14.0,43,0.00,,,0.00,788.0,meteohub,2013-02-03 16:52:00,
2013-02-03 11:57:00,73.9,49.5,-100.00,NNW,340,5.0,14.0,42,0.00,,,0.00,791.0,meteohub,2013-02-03 16:57:00,
2013-02-03 12:02:00,73.8,49.3,-100.00,NNW,345,8.0,14.0,42,0.00,,,0.00,796.0,meteohub,2013-02-03 17:02:00,
2013-02-03 12:07:00,73.8,49.3,-100.00,NNW,333,5.0,15.0,42,0.00,,,0.00,800.0,meteohub,2013-02-03 17:07:00,
2013-02-03 12:12:00,74.1,48.9,-100.00,NNW,331,5.0,15.0,41,0.00,,,0.00,810.0,meteohub,2013-02-03 17:12:00,
2013-02-03 12:17:00,74.1,48.2,-100.00,North,355,9.0,15.0,40,0.00,,,0.00,807.0,meteohub,2013-02-03 17:17:00,
2013-02-03 12:22:00,73.9,48.0,-100.00,North,350,6.0,14.0,40,0.00,,,0.00,802.0,meteohub,2013-02-03 17:22:00,
2013-02-03 12:27:00,73.8,48.0,-100.00,North,5,10.0,14.0,40,0.00,,,0.00,814.0,meteohub,2013-02-03 17:27:00,
2013-02-03 12:32:00,73.9,47.5,-100.00,NNE,15,5.0,14.0,39,0.00,,,0.00,810.0,meteohub,2013-02-03 17:32:00,
2013-02-03 12:37:00,73.9,47.5,-100.00,NNW,327,7.0,14.0,39,0.00,,,0.00,814.0,meteohub,2013-02-03 17:37:00,
2013-02-03 12:42:00,73.8,47.3,-100.00,North,349,7.0,14.0,39,0.00,,,0.00,817.0,meteohub,2013-02-03 17:42:00,
2013-02-03 12:47:00,73.8,48.6,-100.00,NW,320,7.0,14.0,41,0.00,,,0.00,809.0,meteohub,2013-02-03 17:47:00,
2013-02-03 12:52:00,73.6,48.4,-100.00,NNW,333,6.0,14.0,41,0.00,,,0.00,807.0,meteohub,2013-02-03 17:52:00,
2013-02-03 12:57:00,73.6,47.8,-100.00,North,351,11.0,13.0,40,0.00,,,0.00,809.0,meteohub,2013-02-03 17:57:00,
2013-02-03 13:02:00,73.6,46.4,-100.00,NNW,330,5.0,12.0,38,0.00,,,0.00,805.0,meteohub,2013-02-03 18:02:00,
2013-02-03 13:07:00,73.8,45.9,-100.00,NW,325,11.0,12.0,37,0.00,,,0.00,803.0,meteohub,2013-02-03 18:07:00,
2013-02-03 13:12:00,74.5,45.0,-100.00,North,355,7.0,12.0,35,0.00,,,0.00,802.0,meteohub,2013-02-03 18:12:00,
2013-02-03 13:17:00,74.8,44.6,-100.00,NNW,345,4.0,13.0,34,0.00,,,0.00,796.0,meteohub,2013-02-03 18:17:00,
2013-02-03 13:22:00,74.5,45.0,-100.00,North,355,6.0,13.0,35,0.00,,,0.00,796.0,meteohub,2013-02-03 18:22:00,
2013-02-03 13:27:00,75.0,43.9,-100.00,NNW,329,4.0,13.0,33,0.00,,,0.00,798.0,meteohub,2013-02-03 18:27:00,
2013-02-03 13:32:00,75.2,43.3,-100.00,NW,323,6.0,12.0,32,0.00,,,0.00,798.0,meteohub,2013-02-03 18:32:00,
2013-02-03 13:37:00,75.2,41.7,-100.00,North,355,4.0,12.0,30,0.00,,,0.00,796.0,meteohub,2013-02-03 18:37:00,
2013-02-03 13:42:00,75.4,42.6,-100.00,NNW,338,4.0,12.0,31,0.00,,,0.00,789.0,meteohub,2013-02-03 18:42:00,
2013-02-03 13:47:00,75.7,40.3,-100.00,NNW,346,4.0,9.0,28,0.00,,,0.00,780.0,meteohub,2013-02-03 18:47:00,
2013-02-03 13:52:00,75.9,37.6,-100.00,North,355,5.0,12.0,25,0.00,,,0.00,773.0,meteohub,2013-02-03 18:52:00,
2013-02-03 13:57:00,75.7,41.2,-100.00,NNW,336,4.0,12.0,29,0.00,,,0.00,744.0,meteohub,2013-02-03 18:57:00,
2013-02-03 14:02:00,75.7,44.6,-100.00,NNW,340,5.0,12.0,33,0.00,,,0.00,759.0,meteohub,2013-02-03 19:02:00,
2013-02-03 14:07:00,75.0,46.2,-100.00,NW,325,4.0,13.0,36,0.00,,,0.00,731.0,meteohub,2013-02-03 19:07:00,
2013-02-03 14:12:00,74.8,42.3,-100.00,NW,321,5.0,13.0,31,0.00,,,0.00,733.0,meteohub,2013-02-03 19:12:00,
2013-02-03 14:17:00,75.0,46.9,-100.00,NNW,344,7.0,13.0,37,0.00,,,0.00,707.0,meteohub,2013-02-03 19:17:00,
2013-02-03 14:22:00,74.5,47.8,-100.00,NNW,330,6.0,11.0,39,0.00,,,0.00,703.0,meteohub,2013-02-03 19:22:00,
2013-02-03 14:27:00,73.9,46.8,-100.00,NW,313,4.0,11.0,38,0.00,,,0.00,671.0,meteohub,2013-02-03 19:27:00,
2013-02-03 14:32:00,73.4,46.9,-100.00,WNW,302,6.0,12.0,39,0.00,,,0.00,633.0,meteohub,2013-02-03 19:32:00,
2013-02-03 14:37:00,73.0,46.6,-100.00,NNW,346,10.0,12.0,39,0.00,,,0.00,679.0,meteohub,2013-02-03 19:37:00,
2013-02-03 14:42:00,73.0,45.9,-100.00,NW,311,6.0,12.0,38,0.00,,,0.00,580.0,meteohub,2013-02-03 19:42:00,
2013-02-03 14:47:00,72.3,44.6,-100.00,NW,321,3.0,12.0,37,0.00,,,0.00,582.0,meteohub,2013-02-03 19:47:00,
2013-02-03 14:52:00,72.5,44.1,-100.00,NNE,15,4.0,12.0,36,0.00,,,0.00,538.0,meteohub,2013-02-03 19:52:00,
2013-02-03 14:57:00,72.3,43.9,-100.00,NNW,327,3.0,12.0,36,0.00,,,0.00,260.0,meteohub,2013-02-03 19:57:00,
2013-02-03 15:02:00,71.8,44.1,-100.00,NNW,338,6.0,11.0,37,0.00,,,0.00,571.0,meteohub,2013-02-03 20:02:00,
2013-02-03 15:07:00,71.4,43.7,-100.00,NNW,337,6.0,11.0,37,0.00,,,0.00,578.0,meteohub,2013-02-03 20:07:00,
2013-02-03 15:12:00,72.0,44.2,-100.00,NNW,329,5.0,11.0,37,0.00,,,0.00,513.0,meteohub,2013-02-03 20:12:00,
2013-02-03 15:17:00,72.3,43.9,-100.00,NNW,328,6.0,11.0,36,0.00,,,0.00,573.0,meteohub,2013-02-03 20:17:00,
2013-02-03 15:22:00,72.1,43.0,-100.00,NW,326,4.0,11.0,35,0.00,,,0.00,533.0,meteohub,2013-02-03 20:22:00,
2013-02-03 15:27:00,72.3,42.4,-100.00,NNW,329,5.0,11.0,34,0.00,,,0.00,538.0,meteohub,2013-02-03 20:27:00,
2013-02-03 15:32:00,72.7,41.9,-100.00,NE,56,4.0,11.0,33,0.00,,,0.00,496.0,meteohub,2013-02-03 20:32:00,
2013-02-03 15:37:00,72.7,43.5,-100.00,North,355,5.0,9.0,35,0.00,,,0.00,476.0,meteohub,2013-02-03 20:37:00,
2013-02-03 15:42:00,72.9,43.5,-100.00,NNW,348,7.0,9.0,35,0.00,,,0.00,455.0,meteohub,2013-02-03 20:42:00,
2013-02-03 15:47:00,72.7,45.0,-100.00,NW,324,4.0,11.0,37,0.00,,,0.00,462.0,meteohub,2013-02-03 20:47:00,
2013-02-03 15:52:00,72.7,42.6,-100.00,NNW,327,4.0,11.0,34,0.00,,,0.00,438.0,meteohub,2013-02-03 20:52:00,
2013-02-03 15:57:00,72.9,42.8,-100.00,NNW,341,3.0,11.0,34,0.00,,,0.00,408.0,meteohub,2013-02-03 20:57:00,
2013-02-03 16:02:00,72.9,42.1,-100.00,NNW,334,3.0,8.0,33,0.00,,,0.00,338.0,meteohub,2013-02-03 21:02:00,
2013-02-03 16:07:00,72.9,42.8,-100.00,NNW,342,1.0,8.0,34,0.00,,,0.00,338.0,meteohub,2013-02-03 21:07:00,
2013-02-03 16:12:00,73.0,43.0,-100.00,North,351,4.0,8.0,34,0.00,,,0.00,369.0,meteohub,2013-02-03 21:12:00,
2013-02-03 16:17:00,73.0,42.3,-100.00,North,0,1.0,8.0,33,0.00,,,0.00,339.0,meteohub,2013-02-03 21:17:00,
2013-02-03 16:22:00,73.0,42.3,-100.00,NNE,14,4.0,7.0,33,0.00,,,0.00,304.0,meteohub,2013-02-03 21:22:00,
2013-02-03 16:27:00,72.9,42.8,-100.00,North,355,4.0,7.0,34,0.00,,,0.00,318.0,meteohub,2013-02-03 21:27:00,
2013-02-03 16:32:00,72.9,43.5,-100.00,NW,310,5.0,5.0,35,0.00,,,0.00,304.0,meteohub,2013-02-03 21:32:00,
2013-02-03 16:37:00,72.7,43.5,-100.00,NNW,334,4.0,6.0,35,0.00,,,0.00,267.0,meteohub,2013-02-03 21:37:00,
2013-02-03 16:42:00,72.5,43.3,-100.00,North,0,5.0,6.0,35,0.00,,,0.00,234.0,meteohub,2013-02-03 21:42:00,
2013-02-03 16:47:00,72.3,43.9,-100.00,WNW,296,3.0,6.0,36,0.00,,,0.00,211.0,meteohub,2013-02-03 21:47:00,
2013-02-03 16:52:00,72.0,44.2,-100.00,NNW,346,3.0,5.0,37,0.00,,,0.00,204.0,meteohub,2013-02-03 21:52:00,
2013-02-03 16:57:00,71.8,44.8,-100.00,NNE,31,1.0,5.0,38,0.00,,,0.00,183.0,meteohub,2013-02-03 21:57:00,
2013-02-03 17:02:00,71.8,46.2,-100.00,NW,326,5.0,5.0,40,0.00,,,0.00,146.0,meteohub,2013-02-03 22:02:00,
2013-02-03 17:07:00,71.6,45.3,-100.00,NW,325,1.0,5.0,39,0.00,,,0.00,134.0,meteohub,2013-02-03 22:07:00,
2013-02-03 17:12:00,71.2,45.0,-100.00,NNW,340,4.0,5.0,39,0.00,,,0.00,84.0,meteohub,2013-02-03 22:12:00,
2013-02-03 17:17:00,70.9,46.0,-100.00,NNW,347,0.0,6.0,41,0.00,,,0.00,95.0,meteohub,2013-02-03 22:17:00,
2013-02-03 17:22:00,70.5,45.0,-100.00,NNE,13,3.0,6.0,40,0.00,,,0.00,72.0,meteohub,2013-02-03 22:22:00,
2013-02-03 17:27:00,70.2,44.8,-100.00,NNW,327,5.0,7.0,40,0.00,,,0.00,56.0,meteohub,2013-02-03 22:27:00,
2013-02-03 17:32:00,69.6,44.2,-100.00,NNE,19,3.0,7.0,40,0.00,,,0.00,40.0,meteohub,2013-02-03 22:32:00,
2013-02-03 17:37:00,69.3,42.6,-100.00,North,0,3.0,7.0,38,0.00,,,0.00,35.0,meteohub,2013-02-03 22:37:00,
2013-02-03 17:42:00,69.1,43.7,-100.00,NW,311,5.0,7.0,40,0.00,,,0.00,23.0,meteohub,2013-02-03 22:42:00,
2013-02-03 17:47:00,68.7,45.3,-100.00,NNW,348,2.0,7.0,43,0.00,,,0.00,21.0,meteohub,2013-02-03 22:47:00,
2013-02-03 17:52:00,68.5,45.7,-100.00,NNW,344,3.0,7.0,44,0.00,,,0.00,18.0,meteohub,2013-02-03 22:52:00,
2013-02-03 17:57:00,68.2,47.1,-100.00,North,355,2.0,7.0,47,0.00,,,0.00,11.0,meteohub,2013-02-03 22:57:00,
2013-02-03 18:02:00,67.6,47.8,-100.00,North,5,2.0,7.0,49,0.00,,,0.00,7.0,meteohub,2013-02-03 23:02:00,
2013-02-03 18:07:00,67.3,48.6,-100.00,North,0,0.0,7.0,51,0.00,,,0.00,5.0,meteohub,2013-02-03 23:07:00,
2013-02-03 18:12:00,66.9,49.3,-100.00,North,5,1.0,5.0,53,0.00,,,0.00,0.0,meteohub,2013-02-03 23:12:00,
2013-02-03 18:17:00,66.6,48.4,-100.00,NNW,347,1.0,4.0,52,0.00,,,0.00,0.0,meteohub,2013-02-03 23:17:00,
2013-02-03 18:27:00,66.0,48.4,-100.00,NNW,348,0.0,3.0,53,0.00,,,0.00,0.0,meteohub,2013-02-03 23:27:00,
2013-02-03 18:32:00,65.8,48.7,-100.00,NNW,348,2.0,4.0,54,0.00,,,0.00,0.0,meteohub,2013-02-03 23:32:00,
2013-02-03 18:37:00,65.7,49.1,-100.00,North,349,0.0,4.0,55,0.00,,,0.00,0.0,meteohub,2013-02-03 23:37:00,
2013-02-03 18:42:00,65.5,48.9,-100.00,North,349,0.0,3.0,55,0.00,,,0.00,0.0,meteohub,2013-02-03 23:42:00,
2013-02-03 18:47:00,65.1,48.6,-100.00,North,349,0.0,3.0,55,0.00,,,0.00,0.0,meteohub,2013-02-03 23:47:00,
2013-02-03 18:52:00,64.9,48.9,-100.00,North,349,0.0,2.0,56,0.00,,,0.00,0.0,meteohub,2013-02-03 23:52:00,
2013-02-03 18:57:00,64.8,48.7,-100.00,North,349,0.0,2.0,56,0.00,,,0.00,0.0,meteohub,2013-02-03 23:57:00,
2013-02-03 19:02:00,64.4,48.4,-100.00,North,349,0.0,1.0,56,0.00,,,0.00,0.0,meteohub,2013-02-04 00:02:00,
2013-02-03 19:07:00,64.0,48.0,-100.00,North,349,0.0,1.0,56,0.00,,,0.00,0.0,meteohub,2013-02-04 00:07:00,
2013-02-03 19:12:00,63.7,47.7,-100.00,North,349,0.0,0.0,56,0.00,,,0.00,0.0,meteohub,2013-02-04 00:12:00,
2013-02-03 19:17:00,63.1,47.7,-100.00,North,349,0.0,0.0,57,0.00,,,0.00,0.0,meteohub,2013-02-04 00:17:00,
2013-02-03 19:22:00,62.6,47.1,-100.00,North,349,0.0,0.0,57,0.00,,,0.00,0.0,meteohub,2013-02-04 00:22:00,
2013-02-03 19:27:00,62.1,46.6,-100.00,North,349,0.0,0.0,57,0.00,,,0.00,0.0,meteohub,2013-02-04 00:27:00,
2013-02-03 19:32:00,61.7,46.4,-100.00,North,349,0.0,0.0,57,0.00,,,0.00,0.0,meteohub,2013-02-04 00:32:00,
2013-02-03 19:37:00,61.2,45.9,-100.00,North,349,2.0,2.0,57,0.00,,,0.00,0.0,meteohub,2013-02-04 00:37:00,
2013-02-03 19:42:00,61.0,46.0,-100.00,North,349,0.0,3.0,58,0.00,,,0.00,0.0,meteohub,2013-02-04 00:42:00,
2013-02-03 19:47:00,61.0,46.0,-100.00,North,349,0.0,3.0,58,0.00,,,0.00,0.0,meteohub,2013-02-04 00:47:00,
2013-02-03 19:52:00,61.0,45.7,-100.00,North,349,0.0,3.0,57,0.00,,,0.00,0.0,meteohub,2013-02-04 00:52:00,
2013-02-03 19:57:00,60.8,45.5,-100.00,North,349,0.0,2.0,57,0.00,,,0.00,0.0,meteohub,2013-02-04 00:57:00,
2013-02-03 20:02:00,60.4,45.1,-100.00,North,349,0.0,2.0,57,0.00,,,0.00,0.0,meteohub,2013-02-04 01:02:00,
2013-02-03 20:07:00,60.3,45.0,-100.00,North,349,0.0,1.0,57,0.00,,,0.00,0.0,meteohub,2013-02-04 01:07:00,
2013-02-03 20:12:00,59.7,44.4,-100.00,North,349,0.0,1.0,57,0.00,,,0.00,0.0,meteohub,2013-02-04 01:12:00,
2013-02-03 20:17:00,59.5,44.2,-100.00,North,349,0.0,1.0,57,0.00,,,0.00,0.0,meteohub,2013-02-04 01:17:00,
2013-02-03 20:22:00,59.4,44.1,-100.00,North,349,0.0,1.0,57,0.00,,,0.00,0.0,meteohub,2013-02-04 01:22:00,
2013-02-03 20:27:00,59.2,43.9,-100.00,North,349,0.0,1.0,57,0.00,,,0.00,0.0,meteohub,2013-02-04 01:27:00,
2013-02-03 20:32:00,59.0,43.7,-100.00,North,349,0.0,1.0,57,0.00,,,0.00,0.0,meteohub,2013-02-04 01:32:00,
2013-02-03 20:37:00,59.0,43.3,-100.00,North,349,0.0,1.0,56,0.00,,,0.00,0.0,meteohub,2013-02-04 01:37:00,
2013-02-03 20:42:00,59.0,43.3,-100.00,North,349,0.0,1.0,56,0.00,,,0.00,0.0,meteohub,2013-02-04 01:42:00,
2013-02-03 20:47:00,59.0,42.8,-100.00,North,349,0.0,0.0,55,0.00,,,0.00,0.0,meteohub,2013-02-04 01:47:00,
2013-02-03 20:52:00,59.0,42.8,-100.00,North,349,0.0,0.0,55,0.00,,,0.00,0.0,meteohub,2013-02-04 01:52:00,
2013-02-03 20:57:00,59.0,42.8,-100.00,North,349,0.0,0.0,55,0.00,,,0.00,0.0,meteohub,2013-02-04 01:57:00,
2013-02-03 21:02:00,58.8,42.6,-100.00,North,349,0.0,0.0,55,0.00,,,0.00,0.0,meteohub,2013-02-04 02:02:00,
2013-02-03 21:07:00,59.0,43.3,-100.00,North,349,0.0,0.0,56,0.00,,,0.00,0.0,meteohub,2013-02-04 02:07:00,
2013-02-03 21:12:00,59.0,43.3,-100.00,North,349,0.0,0.0,56,0.00,,,0.00,0.0,meteohub,2013-02-04 02:12:00,
2013-02-03 21:17:00,58.8,43.2,-100.00,North,349,0.0,1.0,56,0.00,,,0.00,0.0,meteohub,2013-02-04 02:17:00,
2013-02-03 21:22:00,58.6,43.0,-100.00,North,349,0.0,1.0,56,0.00,,,0.00,0.0,meteohub,2013-02-04 02:22:00,
2013-02-03 21:27:00,58.5,42.8,-100.00,North,349,0.0,1.0,56,0.00,,,0.00,0.0,meteohub,2013-02-04 02:27:00,
2013-02-03 21:32:00,58.5,43.3,-100.00,North,349,0.0,1.0,57,0.00,,,0.00,0.0,meteohub,2013-02-04 02:32:00,
2013-02-03 21:37:00,58.5,42.8,-100.00,North,349,0.0,1.0,56,0.00,,,0.00,0.0,meteohub,2013-02-04 02:37:00,
2013-02-03 21:47:00,58.5,43.3,-100.00,North,349,0.0,2.0,57,0.00,,,0.00,0.0,meteohub,2013-02-04 02:47:00,
2013-02-03 21:52:00,58.3,43.2,-100.00,North,349,0.0,2.0,57,0.00,,,0.00,0.0,meteohub,2013-02-04 02:52:00,
2013-02-03 21:57:00,57.7,42.6,-100.00,North,349,0.0,2.0,57,0.00,,,0.00,0.0,meteohub,2013-02-04 02:57:00,
2013-02-03 22:02:00,57.6,41.9,-100.00,North,349,0.0,0.0,56,0.00,,,0.00,0.0,meteohub,2013-02-04 03:02:00,
2013-02-03 22:07:00,57.6,41.9,-100.00,North,349,0.0,1.0,56,0.00,,,0.00,0.0,meteohub,2013-02-04 03:07:00,
2013-02-03 22:12:00,57.2,41.2,-100.00,North,349,0.0,1.0,55,0.00,,,0.00,0.0,meteohub,2013-02-04 03:12:00,
2013-02-03 22:17:00,56.8,41.4,-100.00,North,349,0.0,1.0,56,0.00,,,0.00,0.0,meteohub,2013-02-04 03:17:00,
2013-02-03 22:22:00,56.8,40.5,-100.00,North,349,0.0,0.0,54,0.00,,,0.00,0.0,meteohub,2013-02-04 03:22:00,
2013-02-03 22:27:00,57.0,39.6,-100.00,North,349,0.0,0.0,52,0.00,,,0.00,0.0,meteohub,2013-02-04 03:27:00,
2013-02-03 22:37:00,56.7,38.3,-100.00,West,261,0.0,5.0,50,0.00,,,0.00,0.0,meteohub,2013-02-04 03:37:00,
2013-02-03 22:42:00,56.5,38.1,-100.00,West,261,0.0,5.0,50,0.00,,,0.00,0.0,meteohub,2013-02-04 03:42:00,
2013-02-03 22:47:00,56.3,37.9,-100.00,West,260,0.0,5.0,50,0.00,,,0.00,0.0,meteohub,2013-02-04 03:47:00,
2013-02-03 22:52:00,56.1,37.2,-100.00,West,260,0.0,1.0,49,0.00,,,0.00,0.0,meteohub,2013-02-04 03:52:00,
2013-02-03 22:57:00,56.1,37.2,-100.00,West,261,0.0,1.0,49,0.00,,,0.00,0.0,meteohub,2013-02-04 03:57:00,
2013-02-03 23:02:00,55.8,37.4,-100.00,West,261,0.0,1.0,50,0.00,,,0.00,0.0,meteohub,2013-02-04 04:02:00,
2013-02-03 23:07:00,55.4,36.0,-100.00,West,260,0.0,1.0,48,0.00,,,0.00,0.0,meteohub,2013-02-04 04:07:00,
2013-02-03 23:12:00,55.0,35.2,-100.00,West,261,0.0,0.0,47,0.00,,,0.00,0.0,meteohub,2013-02-04 04:12:00,
2013-02-03 23:17:00,54.9,35.1,-100.00,West,261,0.0,0.0,47,0.00,,,0.00,0.0,meteohub,2013-02-04 04:17:00,
2013-02-03 23:22:00,54.1,34.3,-100.00,West,260,0.0,0.0,47,0.00,,,0.00,0.0,meteohub,2013-02-04 04:22:00,
2013-02-03 23:27:00,53.8,34.0,-100.00,West,260,0.0,0.0,47,0.00,,,0.00,0.0,meteohub,2013-02-04 04:27:00,
2013-02-03 23:32:00,53.4,32.5,-100.00,West,261,0.0,0.0,45,0.00,,,0.00,0.0,meteohub,2013-02-04 04:32:00,
2013-02-03 23:37:00,53.4,31.5,-100.00,West,261,0.0,0.0,43,0.00,,,0.00,0.0,meteohub,2013-02-04 04:37:00,
2013-02-03 23:42:00,53.6,31.1,-100.00,West,261,0.0,0.0,42,0.00,,,0.00,0.0,meteohub,2013-02-04 04:42:00,
2013-02-03 23:47:00,54.0,30.7,-100.00,West,260,0.0,0.0,41,0.00,,,0.00,0.0,meteohub,2013-02-04 04:47:00,
2013-02-03 23:52:00,54.3,31.6,-100.00,West,261,0.0,1.0,42,0.00,,,0.00,0.0,meteohub,2013-02-04 04:52:00,
2013-02-03 23:57:00,54.7,32.5,-100.00,West,260,0.0,1.0,43,0.00,,,0.00,0.0,meteohub,2013-02-04 04:57:00,